Погода в Выру

Эстония     57°50′30″N   27°00′54″E
темп.,
°C
ветер,
м/с
пор.,
м/с
влажн.,
%
обл.,
%
осадки,
мм/ч
давл.,
гПа
погр.,
м
27 октября, ср
ср2700:00+5ююз41293100 1.2 1010497
03:00+7юз41297100 4.2 1009787
06:00+8з51189100 0.1 1010698
09:00+8з51081100 0.1 10111009
12:00+8зюз61074100 0.0 10121079
15:00+8зюз51082100 0.0 1012956
18:00+8ююз51187100 0.0 1010618
21:00+8ююз61494100 3.6 10061034
28 октября, чт
чт2800:00+10зюз61496100 2.6 10051101
03:00+11з51395100 2.8 1006992
06:00+9з6148834 0.0 1009820
09:00+7сз51083100 0.1 1013991
12:00+9зсз367523 0.0 1017657
15:00+10зсз2474100 0.0 1019666
18:00+7ююз1190100 0.0 102111
21:00+8ю3787100 0.0 1021212
29 октября, пт
пт2900:00+9ю41189100 0.0 1021371
03:00+10ююз41196100 0.0 1020535
06:00+9юз5129535 0.0 1021411
09:00+8юз4139179 0.0 1022374
12:00+11юз4138191 0.0 1022458
15:00+13юз4117612 0.0 1022636
18:00+10ю41190100 0.0 1022367
21:00+10ююз5149288 0.0 1021451
30 октября, сб
сб3000:00+10ююз5159490 0.0 1021513
03:00+9ююз5159473 0.0 1021491
06:00+8ююз5149147 0.0 1020417
09:00+8ю5158880 0.0 1019434
12:00+11ю5157550 0.0 1018510
15:00+12ю614705 0.0 1017639
18:00+10ю6147723 0.0 1017627
21:00+9ююз615835 0.0 1017649
31 октября, вс
вс3100:00+9ююз513871 0.0 1017523
03:00+8ююз4118841 0.0 1018353
05:00+7ююз3109098 0.0 1018225
08:00+6ююз3888100 0.0 1018201
11:00+10ю3972100 0.0 1017287
14:00+10ю31071100 0.0 1015419
17:00+10ююв41177100 0.0 1014460
20:00+9ю51379100 0.0 1012536